Regional Weather Roundup
Issued by NWS

Home | Current Version | Previous Version | Text Only | Print | Product List | Glossary Off
Versions: 1 2 3 4 5 6 7 8 9 10 11 12 13 14 15 16 17 18 19 20 21 22 23 24 25 26 27 28 29 30 31 32 33 34 35 36 37 38 39 40 41 42 43 44 45 46 47 48 49 50

000
ASUS43 KLOT 200904
RWRIL

ILLINOIS REGIONAL WEATHER ROUNDUP
NATIONAL WEATHER SERVICE CHICAGO/ROMEOVILLE IL
400 AM CDT THU JUL 20 2017

NOTE: "FAIR" INDICATES FEW OR NO CLOUDS BELOW 12,000 FEET WITH NO
SIGNIFICANT WEATHER AND/OR OBSTRUCTIONS TO VISIBILITY.

* THESE STATIONS ARE NOT UNDER NWS QUALITY CONTROL. THEY ALSO MAY NOT
  REPORT WEATHER SUCH AS PRECIPITATION OR FOG.

ILZ001-002-007-009-015-016-024-201000-
NORTHWEST ILLINOIS

CITY           SKY/WX    TMP DP  RH WIND       PRES   REMARKS
MOLINE         CLOUDY    78  70  76 S7        29.95F HX  80
STERLING*      CLOUDY    71  67  87 VRB5      29.97S
SAVANNA*       CLOUDY    71  67  88 SE5       29.95S
$$

ILZ003-004-008-010-011-017-018-201000-
NORTH CENTRAL ILLINOIS

CITY           SKY/WX    TMP DP  RH WIND       PRES   REMARKS
ROCKFORD       CLOUDY    72  68  87 E3        29.99R THUNDER
FREEPORT*      TSTM      67  65  96 N9G25     30.05R
ROCHELLE*      CLOUDY    68  67  97 S5        29.97F
DE KALB*       CLOUDY    69  67  95 NE7       30.02R
PERU*          CLOUDY    69  65  88 S7        30.00R
$$

ILZ005-006-012>014-019>023-201000-
NORTHEAST ILLINOIS

CITY           SKY/WX    TMP DP  RH WIND       PRES   REMARKS
CHICAGO-OHARE  CLOUDY    71  67  87 W8        30.00R
CHICAGO-MIDWAY CLOUDY    71  68  90 SW7       29.99S
AURORA         CLOUDY    69  68  96 CALM      30.01R
LANSING*       MOCLDY    68  66  92 S7        30.00S
JOLIET*        CLOUDY    70  69  97 CALM      30.00S
WAUKEGAN       CLOUDY    69  69 100 W5        30.00R
DUPAGE AIRPORT CLOUDY    69  69 100 CALM      30.02R
WHEELING       CLOUDY    70  70 100 W7        30.03R
MORRIS*        CLOUDY    70  67  91 S8        29.99R
ROMEOVILLE*    CLOUDY    68  65  90 S3        30.00S
NORTHERLY ISL    N/A     72  66  81 W7          N/A
$$

LMZ740>746-201000-
SOUTHERN LAKE MICHIGAN

STATION/POSITION SKY/WX   TEMP    WIND        PRES    VSBY  WAVE
                          AIR SEA DIR/SP/G                  HT/PER
                          (F)     (DEG/KT/KT) (MB)    (MI)  (FT/S)
SOUTHERN BUOY              69 69  330/ 10/ 16 1015.5          3/ 5
WILMETTE HARBOR            71 71  240/ 12/ 16   N/A           1/ 2
HARRISON CRIB              74     220/  8/ 10   N/A
BURNHAM HARBOR             72                   N/A
CALUMET HARBOR             70     200/  5/  7 1014.8F
BURNS HARBOR               71     200/ 10/ 15 1015.2F
MICHIGAN CITY              69     180/ 11/ 13   N/A
MICHIGAN CITY 6N           71 74  220/ 12/ 14   N/A           1/ 3
ST. JOSEPH                 73 73   80/  4/ 10 1015.6R         3/ 3
$$

ILZ025>027-034>036-040-047-049-050-058-095>099-201000-
WEST-CENTRAL ILLINOIS

CITY           SKY/WX    TMP DP  RH WIND       PRES   REMARKS
QUINCY         CLOUDY    76  70  82 S8        30.02R
GALESBURG*     MOCLDY    73  71  92 S5        30.00F
MACOMB*        LGT RAIN  73  72  95 CALM      30.03S
JACKSONVILLE*  CLOUDY    77  73  86 S5        30.02R
PITTSFIELD*    CLOUDY    77  70  78 S6        30.03S
$$

ILZ028>032-037-038-041>044-048-051>054-059>061-201000-
CENTRAL ILLINOIS

CITY           SKY/WX    TMP DP  RH WIND       PRES   REMARKS
PONTIAC        MOCLDY    71  69  96 S6        30.01S
BLOOMINGTON    CLOUDY    71  65  81 S9        30.02F
DECATUR        CLOUDY    76  73  91 S3        30.02F
PEORIA         MOCLDY    74  68  81 S7        29.99F
LACON*         CLOUDY    70  67  91 CALM      29.99R
SPRINGFIELD    CLOUDY    77  75  93 S3        30.01F
TAYLORVILLE    CLEAR     76  74  94 S7        30.03S
$$

ILZ033-039-045-046-055>057-062-063-201000-
EAST-CENTRAL ILLINOIS

CITY           SKY/WX    TMP DP  RH WIND       PRES   REMARKS
CHAMPAIGN      CLOUDY    71  68  90 SE5       30.02F
RANTOUL*       CLOUDY    72  69  93 S5        30.02F
MATTOON        CLEAR     78  76  93 S6        30.02F HX  81
PARIS*         PTCLDY    72  71  99 SE6       30.04F
$$

ILZ079-100>102-201000-
SOUTHWEST ILLINOIS

CITY           SKY/WX    TMP DP  RH WIND       PRES   REMARKS
ALTON            N/A     75  74  97 CALM      30.04R
BELLEVILLE     CLEAR     77  73  87 SW3       30.05S
CAHOKIA*       CLEAR     82  71  69 SW7       30.03S HX  86
SPARTA*        PTCLDY    78  72  81 S8        30.06F HX  80
$$

ILZ064>066-069>071-074>076-080>082-084>086-088>090-092>094-201000-
SOUTH-CENTRAL ILLINOIS

CITY           SKY/WX    TMP DP  RH WIND       PRES   REMARKS
CARBONDALE     CLEAR     74  74 100 S3        30.06F
CAIRO*         PTCLDY    74  73  95 CALM      30.07F
EFFINGHAM*     CLEAR     75  75 100 CALM      30.06S FOG
MARION         CLEAR     77  75  94 S5        30.07F
MT. VERNON     PTCLDY    73  72  96 CALM      30.05F FOG
CENTRALIA*     PTCLDY    76  74  93 S5        30.05R
SALEM*         CLEAR     77  74  88 S3        30.05S
METROPOLIS*    CLEAR     74  73  99 CALM      30.08F FOG
$$

ILZ067-068-072-073-078-083-087-091-201000-
SOUTHEAST ILLINOIS

CITY           SKY/WX    TMP DP  RH WIND       PRES   REMARKS
LAWRENCEVILLE  CLEAR     74  72  93 S3        30.05F
FLORA*         CLEAR     76  74  95 CALM      30.05S FOG
FAIRFIELD*     CLEAR     75  74  97 CALM      30.04S
HARRISBURG*    CLEAR     73  73  99 CALM      30.06F FOG
ROBINSON*      CLEAR     71  70  98 CALM      30.05F
CARMI*         CLEAR     73  73 100 S5        30.04F FOG
$$

ABBREVIATIONS USED IN REMARKS
   TC - TEMPERATURE IN CELSIUS
  WCI - WIND CHILL INDEX
   HX - HEAT INDEX
  VSB - VISIBILITY
$$





USA.gov is the U.S. government's official web portal to all federal, state and local government web resources and services.